Regional Weather Roundup
Issued by NWS

Home | Current Version | Previous Version | Text Only | Print | Product List | Glossary Off
Versions: 1 2 3 4 5 6 7 8 9 10 11 12 13 14 15 16 17 18 19 20 21 22 23 24 25 26 27 28 29 30 31 32 33 34 35 36 37 38 39 40 41 42 43 44 45 46 47 48 49 50

000
ASUS45 KTFX 301410
RWRMT
MONTANA REGIONAL WEATHER ROUNDUP
NATIONAL WEATHER SERVICE GREAT FALLS MT
800 AM MDT TUE JUN 30 2015

NOTE: "FAIR" INDICATES FEW OR NO CLOUDS BELOW 12000 FEET WITH NO
SIGNIFICANT WEATHER AND/OR OBSTRUCTIONS TO VISIBILITY.

MTZ001>007-043-301500-
WEST OF THE DIVIDE

CITY           SKY/WX    TMP DP  RH WIND       PRES   REMARKS
KALISPELL      SUNNY     67  56  67 CALM      30.03S
MISSOULA       SUNNY     68  62  81 E3        30.10R
BUTTE          MOSUNNY   61  56  83 CALM      30.23S
MULLAN PASS    SUNNY     63  52  67 CALM      30.22S
EUREKA           N/A     61  59  94 NW3       30.08R
HAMILTON         N/A     68  59  73 S12       30.11F
PLAINS           N/A     67  58  72 CALM      30.04R
RONAN            N/A     70  61  73 NW2       30.09R
THOMPSON FALLS   N/A     67  60  78 CALM      30.08R
$$

MTZ008-052>055-301500-
SOUTHWEST MONTANA

CITY           SKY/WX    TMP DP  RH WIND       PRES   REMARKS
BOZEMAN        MOSUNNY   66  58  75 CALM      30.15S
DILLON         PTSUNNY   63  57  81 SW7       30.20R
W YELLOWSTONE  MOSUNNY   59  54  82 CALM      30.29R
THREE FORKS      N/A     66  45  46 CALM      30.12S
TWIN BRIDGES     N/A     65  57  75 SE5       30.16R
$$

MTZ009-010-012-014-046-048-049-054-301500-
EAST SLOPES AND CENTRAL MONTANA

CITY           SKY/WX    TMP DP  RH WIND       PRES   REMARKS
CUT BANK       SUNNY     72  50  45 SW14      29.99S
GREAT FALLS    SUNNY     72  58  61 W6        30.01S
MALMSTROM AFB  SUNNY     72  59  62 SW10      30.01S
HELENA         SUNNY     70  62  76 NE6       30.09S
$$

MTZ011-013-016-021-045-047-050-051-301500-
NORTH CENTRAL MONTANA

CITY           SKY/WX    TMP DP  RH WIND       PRES   REMARKS
HAVRE          SUNNY     73  55  53 W14       29.91R HAZE
LEWISTOWN      PTSUNNY   74  57  55 VRB3      30.02
CHINOOK          N/A     73  48  40 CALM      29.89S VSB 1
FORT BENTON      N/A     73  61  64 S7        29.95S
$$

MTZ017>020-022>027-061-062-301500-
NORTHEAST MONTANA

CITY           SKY/WX    TMP DP  RH WIND       PRES   REMARKS
JORDAN           N/A     70  52  52 CALM      29.92F
SIDNEY         CLOUDY    73  61  64 N9        29.93S
WOLF POINT     HAZE      71  56  58 E16       29.92S VSB 3/4
MALTA            N/A     72  48  42 NE3       29.87F
PLENTYWOOD       N/A     66  57  72 NE10      29.95F VSB 1
POPLAR           N/A     68  59  73 NE12      29.92S
$$

MTZ028>42-056>058-301500-
SOUTHCENTRAL AND SOUTHEAST MONTANA

CITY           SKY/WX    TMP DP  RH WIND       PRES   REMARKS
BAKER          CLOUDY    69  61  75 E12       29.93F
BILLINGS       CLOUDY    72  58  61 SW13      30.01F
LIVINGSTON     MOSUNNY   70  59  68 W10       30.11F
MILES CITY     HAZE      70  58  65 NE8       29.89F VSB 1
BIG TIMBER       N/A     70  55  60 SW22G30   30.07F
FORSYTH          N/A     73  57  56 W3        29.91S
LAUREL           N/A     70  57  63 S8        30.01F
ROUNDUP          N/A     71  58  63 S2        29.91S
$$

REGIONAL REPORTS...DAKOTAS

CITY           SKY/WX    TMP DP  RH WIND       PRES   REMARKS
WILLISTON      CLOUDY    68  63  84 N3        29.94F HAZE
MINOT          CLOUDY    64  61  90 SE10      29.92F FOG
DICKINSON      CLOUDY    68  62  81 E6        29.94S
BEACH          FAIR      68  64  88 E8        29.94S
CROSBY         FOG       63  63 100 CALM      29.97F VSB 1
BISMARCK       CLOUDY    68  63  84 E6        29.94S
GRAND FORKS    CLOUDY    62  59  90 CALM      29.97R FOG
FARGO          MOSUNNY   64  60  87 CALM      29.97R FOG
BUFFALO SD       N/A     68  62  81 E10       29.87F
RAPID CITY     CLOUDY    72  60  66 NE6       29.96R
$$

REGIONAL REPORTS...WYOMING/IDAHO/WASHINGTON

CITY           SKY/WX    TMP DP  RH WIND       PRES   REMARKS
GILLETTE       CLOUDY    72  56  57 CALM      30.02F
SHERIDAN       CLOUDY    69  60  73 CALM      30.01S
BUFFALO WY     CLOUDY    73  52  47 W6        30.07F
CODY           CLOUDY    70  54  56 CALM      30.12R
YELLOWSTONE LA   N/A     62  49  62 E3        30.38R
IDAHO FALLS    MOSUNNY   67  57  70 CALM      30.14R
SALMON         MOSUNNY   63  59  88 N5        30.16R
BOISE          MOSUNNY   77  56  48 SW3       30.02R
SPOKANE        SUNNY     72  58  61 N3        30.04R
$$

REGIONAL REPORTS...ALBERTA

CITY           SKY/WX    TMP DP  RH WIND       PRES   REMARKS
EDMONTON       CLOUDY    59  54  82 E5        29.99S
CALGARY        PTSUNNY   61  57  88 NW3       29.99R FOG
LETHBRIDGE     MOSUNNY   68  57  68 W16       29.95R
MEDICINE HAT   SMOKE     63  57  82 VRB2      29.89S VSB 3/4
WATERTON GATE    N/A     72  46  40 W14G21      N/A
CARDSTON         N/A     64  54  68 W6          N/A
MILK RIVER       N/A     68  50  52 W13         N/A
ONEFOUR          N/A     68  39  34 E5          N/A
$$

REGIONAL REPORTS...SASKATCHEWAN

CITY           SKY/WX    TMP DP  RH WIND       PRES   REMARKS
SWIFT CURRENT  MOSUNNY   61  54  77 SE12G23   29.95R HAZE
REGINA         LGT RAIN  61  61 100 E5        29.94F VSB 5/8
SASKATOON      SMOKE     64  57  77 W6        29.96F VSB 1
CYPRESS HILLS    N/A     61  43  51 SE9         N/A
VAL MARIE        N/A     66  52  59 E10         N/A
ROCKGLEN         N/A     63  54  72 NE3         N/A
$$



USA.gov is the U.S. government's official web portal to all federal, state and local government web resources and services.